Theta_e
352 341 346 349 344 341 337 335 334 333 334 335 337 340 340 340 338 337 337 337 338 339 340 340 336 332 328 323 319 317 321 323 326 327 328 332 338 341 343 345 343 336 337
340 342 346 348 344 341 336 335 334 334 333 333 334 335 336 336 336 336 336 336 337 337 335 330 327 325 323 318 314 314 317 323 335 332 331 327 327 335 341 343 337 336 334
340 343 345 348 344 340 336 336 335 335 334 332 333 335 336 336 336 336 335 335 333 329 326 323 322 319 315 313 311 313 321 328 337 342 341 338 326 324 324 330 335 337 336
336 344 345 348 344 340 337 337 337 337 336 333 334 336 336 336 336 334 332 330 326 323 320 319 317 314 313 311 311 313 317 322 326 330 334 335 339 326 323 323 328 335 337
339 341 344 347 345 341 337 337 339 338 337 333 335 337 337 336 331 328 327 324 321 319 317 316 315 314 315 314 312 317 321 322 326 333 339 338 335 330 329 334 336 331 339
339 340 342 346 346 342 338 338 339 339 339 334 333 337 338 335 327 325 325 322 319 317 316 315 315 316 317 317 314 317 327 332 336 339 337 337 336 331 333 331 331 334 327
337 340 341 343 346 344 340 338 339 340 341 336 332 333 337 334 328 326 324 320 318 317 316 316 316 317 318 319 319 316 320 330 335 336 336 339 336 335 336 332 331 329 327
332 340 341 341 345 345 343 340 340 340 342 340 335 332 334 332 328 326 324 320 318 317 316 316 316 317 318 318 319 320 320 319 320 329 328 336 337 336 337 335 331 332 329
335 336 342 343 344 345 345 342 341 342 342 342 338 334 333 332 329 325 323 320 318 318 316 316 316 317 317 318 318 319 320 320 320 320 321 330 331 338 336 335 331 331 332
342 339 340 340 342 346 348 345 343 343 342 342 341 336 334 332 329 325 323 320 319 317 317 316 316 316 316 317 317 318 318 318 318 319 319 321 332 334 337 335 332 330 332
350 346 346 339 339 346 354 350 346 344 343 342 341 338 334 331 329 325 321 320 319 318 317 317 317 317 316 316 316 316 316 320 326 328 327 323 331 331 334 336 332 330 331
351 348 346 349 344 341 351 354 349 347 346 345 344 340 333 329 327 324 322 320 319 319 318 317 317 317 317 317 317 317 316 323 329 331 332 330 331 332 335 336 333 331 332
351 349 344 345 347 342 347 353 357 352 348 346 344 341 335 329 326 326 323 322 321 320 323 324 322 320 318 319 322 323 323 329 333 334 335 335 333 333 336 333 333 330 330
353 351 349 340 346 347 337 346 354 352 349 347 345 341 337 329 325 324 327 326 329 333 335 335 334 330 324 324 332 333 333 332 332 333 334 333 333 334 334 334 332 330 330
348 346 348 346 341 347 346 338 340 345 347 347 346 343 337 330 324 323 327 336 337 336 337 339 339 334 333 333 333 335 335 335 335 335 335 334 333 333 334 333 332 331 330
337 342 346 346 341 343 346 344 336 338 343 345 344 341 337 331 326 324 330 338 339 339 338 341 342 339 337 336 335 336 336 336 336 336 337 335 335 334 335 334 333 333 331
335 342 343 345 340 340 344 343 342 337 336 339 339 337 335 331 327 325 331 340 342 341 341 343 343 342 340 338 337 339 338 336 336 336 336 337 336 336 335 335 334 334 334
340 346 346 346 344 338 343 344 342 340 337 334 331 332 330 328 327 328 331 337 341 343 345 345 344 342 341 340 339 338 336 335 335 338 339 339 338 338 337 337 337 337 338
335 341 347 348 348 343 345 346 346 344 342 340 338 335 334 330 330 331 333 336 341 344 344 343 342 342 340 339 338 337 336 337 338 340 342 343 340 340 340 339 339 339 339
330 332 339 348 350 347 349 350 349 347 344 342 342 340 340 339 339 339 340 342 344 346 346 344 342 341 341 340 339 339 338 338 339 341 343 343 343 341 341 341 341 340 341
324 322 330 334 343 350 350 349 348 350 349 347 344 343 343 343 343 343 343 346 346 347 346 344 343 343 341 340 340 340 338 337 339 339 341 343 344 344 343 342 342 342 342
323 321 324 335 344 342 348 350 348 346 347 348 347 346 347 350 346 346 344 344 345 345 345 345 343 342 341 339 339 342 343 339 341 340 340 339 334 340 344 344 343 344 342
325 322 321 324 332 337 343 344 347 345 344 345 345 346 344 343 345 347 346 346 345 344 344 343 344 344 341 339 338 337 338 334 334 336 337 338 340 344 344 344 344 344 344
322 322 322 321 321 321 323 333 344 345 341 342 342 342 342 343 342 340 337 336 340 345 344 342 343 341 340 339 338 339 338 338 336 336 336 332 337 336 339 342 344 344 344
324 323 321 321 321 320 319 324 330 334 338 340 342 340 343 342 340 339 339 341 341 339 340 341 343 341 340 339 338 339 340 342 342 338 337 329 332 332 338 341 344 345 343
323 322 321 320 320 319 320 321 323 326 328 332 334 337 339 340 339 338 334 336 337 338 338 341 341 341 341 339 339 340 339 338 338 334 329 328 332 338 340 342 342 344 343
Wind_Speed
27 30 29 29 29 29 29 28 28 26 25 25 26 27 28 28 26 24 22 20 18 17 15 13 11 11 10 9 9 10 11 12 12 11 10 10 9 7 8 9 7 7 7
36 32 31 31 30 29 29 29 28 27 26 25 25 26 26 25 24 22 20 18 17 16 14 12 11 10 9 9 9 10 10 11 11 10 9 8 8 8 6 6 6 7 7
36 35 33 31 31 31 30 29 28 27 25 25 26 27 26 24 22 21 19 18 16 15 14 12 11 10 8 8 9 10 10 10 8 7 7 6 5 6 5 4 6 6 6
37 34 34 31 30 31 31 30 28 27 25 25 27 27 25 23 22 21 19 17 15 15 13 11 10 9 8 8 9 9 7 6 6 4 2 2 3 2 5 4 4 6 6
36 36 34 32 31 30 31 31 30 27 26 25 25 25 24 22 21 20 18 16 15 14 12 11 10 9 8 8 8 8 7 4 3 2 3 5 8 5 3 3 2 4 4
37 36 35 33 31 30 30 31 30 28 26 26 25 23 22 21 20 18 17 15 13 12 11 10 9 8 7 6 6 6 5 3 2 1 4 4 8 6 1 0 1 2 3
39 37 36 34 32 30 29 29 29 27 26 25 25 23 22 20 18 17 15 13 12 10 9 9 8 7 5 4 3 3 4 4 4 4 4 6 10 7 5 3 2 2 3
38 38 37 35 33 31 29 28 29 27 24 23 22 21 20 19 18 16 14 12 10 9 9 8 7 5 3 2 2 2 3 5 7 7 8 7 11 12 9 6 5 4 3
36 39 37 35 33 31 30 29 29 28 25 20 20 19 18 17 16 16 14 12 10 9 8 6 5 4 3 4 4 5 5 7 9 10 11 8 8 16 14 10 8 8 6
33 37 39 37 34 31 30 30 29 29 26 23 20 18 18 17 15 14 13 11 10 9 8 7 6 5 6 6 7 8 7 9 11 12 12 12 10 12 18 15 11 10 9
22 31 33 39 36 30 25 29 29 29 27 25 23 20 19 17 16 14 13 12 10 9 8 9 8 8 8 9 10 9 10 9 11 15 14 12 13 17 19 19 15 12 12
22 26 31 28 36 35 25 25 30 29 30 28 25 24 21 19 16 14 13 12 11 11 11 11 11 11 12 12 12 13 12 12 12 14 14 11 14 19 19 20 16 14 15
26 25 30 30 30 33 30 27 27 28 31 30 27 25 23 21 18 17 15 15 14 13 14 14 15 16 15 14 12 12 11 11 12 11 13 17 18 17 16 18 17 16 16
28 28 28 33 33 31 35 34 30 30 31 31 30 27 26 25 23 21 18 17 16 15 13 14 16 17 16 15 12 12 10 13 15 16 16 16 16 13 17 17 17 16 18
27 26 28 32 37 32 32 36 33 32 32 31 29 29 28 28 27 25 23 20 18 16 17 15 15 15 14 13 15 15 14 15 15 18 18 18 20 17 17 19 18 17 18
19 24 26 29 33 34 33 32 35 34 32 31 31 31 30 30 28 27 24 22 20 18 17 17 18 19 17 17 16 18 18 18 18 19 21 22 20 20 18 20 19 18 19
20 25 27 30 33 34 36 33 32 33 34 34 34 33 31 30 28 27 26 22 22 20 18 19 18 20 23 21 21 20 18 17 19 22 23 23 22 20 21 22 21 20 21
23 23 27 27 36 36 37 36 36 33 32 32 33 34 35 33 30 29 27 26 22 22 20 19 20 22 21 19 17 18 20 21 21 20 24 26 21 20 20 21 23 21 20
24 24 24 27 30 37 38 34 33 34 33 32 30 31 36 34 32 30 29 28 24 24 23 23 23 22 23 25 25 25 24 20 20 24 24 24 26 20 19 21 23 23 21
21 20 20 21 29 30 30 32 26 29 35 33 33 34 34 34 34 30 27 26 25 25 26 24 24 25 26 26 23 24 23 24 25 24 22 23 23 22 19 19 23 26 24
19 18 17 17 17 22 18 20 23 26 26 27 32 35 34 35 34 30 29 30 26 26 27 25 26 23 26 23 17 17 23 24 32 25 19 23 12 15 14 22 20 25 24
20 17 16 16 13 13 15 17 14 16 24 27 24 21 21 28 24 24 34 32 29 28 28 27 26 24 25 17 10 2 3 9 17 16 12 16 16 17 13 16 22 23 26
22 18 16 14 11 8 7 13 15 10 15 18 25 32 29 23 19 29 29 27 27 27 28 28 29 26 24 23 17 11 2 5 3 9 11 11 11 14 12 13 21 23 28
27 21 17 13 10 8 6 7 11 15 9 13 14 24 31 32 30 22 26 26 27 30 28 29 29 29 26 23 18 24 26 22 3 5 10 16 9 13 12 20 22 23 27
21 20 16 12 8 5 6 5 9 9 10 16 23 19 19 22 24 26 27 30 32 26 31 32 31 31 29 26 23 18 19 25 17 6 7 7 15 18 13 18 25 27 27
22 22 18 12 6 4 7 8 9 10 10 10 9 11 21 24 28 32 32 29 29 25 29 35 32 30 29 29 29 29 26 15 9 8 5 6 7 21 19 19 25 30 26
Wind_Direction
165 161 159 156 150 145 142 140 139 138 136 133 131 130 130 130 129 129 129 132 134 133 130 128 124 118 114 109 105 105 105 100 98 101 97 100 97 93 74 91 80 67 76
161 161 161 158 153 149 145 143 142 142 141 139 137 136 133 132 132 134 135 135 132 130 128 127 123 120 115 112 114 112 110 117 112 107 97 82 86 87 82 93 66 73 76
162 162 163 162 156 153 150 146 146 145 143 144 145 142 139 137 137 137 136 135 135 132 129 126 123 117 114 114 114 118 120 122 123 117 105 69 76 88 91 92 90 94 83
164 163 163 164 161 157 154 150 149 148 146 147 147 145 143 142 143 141 140 140 138 132 131 129 122 118 115 115 119 126 134 136 132 122 115 81 135 88 86 82 105 111 106
165 166 165 166 165 162 159 155 152 152 150 149 149 149 148 148 147 144 144 144 140 137 134 131 129 125 122 120 127 136 142 144 114 68 25 335 226 205 89 51 92 123 139
168 169 166 168 168 168 164 160 156 156 154 153 153 153 153 153 150 149 147 146 145 143 141 139 134 131 128 126 131 146 161 178 181 349 351 307 203 190 218 142 141 172 139
168 172 169 169 171 171 169 165 159 158 158 157 157 157 158 158 155 153 151 151 152 151 151 149 147 148 143 139 143 172 198 226 255 290 333 316 218 220 255 248 215 195 168
169 174 172 171 173 174 173 171 163 160 162 161 160 161 163 163 159 158 158 158 163 168 169 168 168 169 171 192 221 238 261 273 283 285 312 341 247 237 246 257 249 233 214
175 173 174 173 174 177 177 175 169 164 163 167 165 166 169 169 167 166 166 169 177 185 189 194 197 204 219 249 271 281 292 298 296 297 302 288 293 251 248 249 249 246 233
178 176 175 173 176 178 180 180 176 169 168 169 173 174 175 175 176 177 177 183 190 201 210 218 228 235 251 261 270 280 288 291 294 294 289 288 292 287 252 251 251 251 241
166 176 179 175 179 177 175 182 180 175 173 174 175 180 182 184 185 187 191 197 207 221 232 244 248 255 262 268 274 276 282 281 296 305 305 283 285 294 270 251 252 253 246
164 177 182 179 180 179 172 179 183 181 177 179 181 183 186 189 193 199 203 210 218 232 246 257 265 267 266 269 278 280 280 282 297 299 304 289 287 294 273 249 258 262 253
178 178 188 187 185 182 174 177 182 185 184 184 186 189 188 191 196 205 211 220 229 235 247 256 262 265 271 277 282 284 287 276 292 296 299 296 297 295 259 251 263 268 262
173 188 193 194 191 188 188 186 185 190 191 190 191 192 194 195 199 204 209 219 228 236 248 259 267 267 270 270 273 281 287 288 290 291 292 293 299 283 255 259 265 268 264
173 184 195 193 194 191 192 191 193 196 198 199 198 199 201 203 203 205 211 215 225 236 247 255 265 263 266 273 271 274 280 283 293 296 294 297 303 297 271 266 268 273 269
162 176 187 193 193 195 197 195 193 198 204 206 208 208 208 210 212 211 215 223 230 236 244 258 266 271 272 273 277 278 278 282 289 295 293 289 294 290 281 273 276 278 273
164 179 186 191 186 202 204 203 200 199 203 207 213 215 215 214 215 216 220 225 234 240 250 259 263 270 273 270 271 277 273 282 287 288 286 281 279 285 286 281 275 277 277
156 172 186 187 186 195 208 207 205 203 204 208 215 219 217 219 215 217 220 228 233 238 248 256 262 267 268 263 264 261 268 278 278 280 284 280 270 275 281 280 279 277 279
163 162 182 194 193 196 200 200 201 206 204 211 210 214 222 219 215 215 222 227 231 238 244 255 260 263 264 263 266 276 275 273 277 282 286 286 274 271 281 281 278 276 277
162 159 166 180 198 200 200 195 191 197 205 208 218 216 216 217 219 210 220 228 231 237 243 249 254 261 269 269 277 280 280 280 275 273 283 290 281 267 279 278 281 270 278
163 152 154 180 189 205 208 207 205 198 194 200 216 224 220 215 223 218 214 225 230 237 246 250 257 263 263 263 277 283 296 283 272 270 275 279 283 265 282 265 271 265 272
163 160 145 157 176 200 220 224 235 247 220 206 196 199 214 222 208 231 227 223 227 240 248 256 258 258 263 267 253 340 296 288 252 250 260 274 289 290 284 270 265 267 269
164 165 156 151 166 174 206 232 240 243 237 225 218 213 213 213 208 213 229 233 238 243 250 257 256 253 255 265 253 226 313 254 323 253 255 292 307 301 309 282 263 268 268
175 169 164 162 172 192 226 233 227 234 252 241 283 241 223 217 227 240 255 246 249 244 254 262 263 265 262 253 254 239 239 253 271 319 287 304 280 297 308 289 271 268 266
164 157 155 157 169 200 240 251 245 242 257 276 269 267 251 227 213 222 238 236 236 244 260 258 257 264 268 258 251 246 247 261 249 219 283 288 287 309 281 286 276 267 266
166 164 161 164 189 228 249 261 266 268 265 265 270 262 266 261 246 239 238 247 259 258 269 264 263 256 266 263 260 254 244 237 217 210 238 262 255 300 269 274 271 262 261